Regional Weather Roundup
Issued by NWS

Home | Current Version | Previous Version | Graphics & Text | Print | Product List | Glossary On
Versions: 1 2 3 4 5 6 7 8 9 10 11 12 13 14 15 16 17 18 19 20 21 22 23 24 25 26 27 28 29 30 31 32 33 34 35 36 37 38 39 40 41 42 43 44 45 46 47 48 49 50
000
ASUS43 KLOT 070808
RWRIL

ILLINOIS REGIONAL WEATHER ROUNDUP
NATIONAL WEATHER SERVICE CHICAGO/ROMEOVILLE IL
200 AM CST SUN FEB 07 2016

NOTE: "FAIR" INDICATES FEW OR NO CLOUDS BELOW 12,000 FEET WITH NO
SIGNIFICANT WEATHER AND/OR OBSTRUCTIONS TO VISIBILITY.

* THESE STATIONS ARE NOT UNDER NWS QUALITY CONTROL. THEY ALSO MAY NOT
  REPORT WEATHER SUCH AS PRECIPITATION OR FOG.

ILZ001-002-007-009-015-016-024-070900-
NORTHWEST ILLINOIS

CITY           SKY/WX    TMP DP  RH WIND       PRES   REMARKS
MOLINE         CLOUDY    39  29  67 SW15      29.94F WCI  31
STERLING*      MOCLDY    36  28  75 SW6       29.94F WCI  31
SAVANNA*       CLOUDY    34  31  88 S8        29.93F WCI  28
$$

ILZ003-004-008-010-011-017-018-070900-
NORTH CENTRAL ILLINOIS

CITY           SKY/WX    TMP DP  RH WIND       PRES   REMARKS
ROCKFORD       CLOUDY    34  30  85 S8        29.97F WCI  27
FREEPORT*      CLOUDY    35  30  83 S15       29.95F WCI  25
ROCHELLE*      MOCLDY    34  31  88 S13       29.98F WCI  25
DE KALB*       MOCLDY    32  29  91 S8        29.98F WCI  24
PERU*          CLOUDY    -7  -9  89 S9        30.02F WCI -24
$$

ILZ005-006-012>014-019>023-070900-
NORTHEAST ILLINOIS

CITY           SKY/WX    TMP DP  RH WIND       PRES   REMARKS
CHICAGO-OHARE  CLOUDY    36  29  75 SW7       30.00F WCI  30
CHICAGO-MIDWAY CLOUDY    36  28  73 S8        30.02F WCI  30
AURORA         CLOUDY    35  29  78 S8        30.00F WCI  29
LANSING*       CLOUDY    34  30  86 SW7       30.04F WCI  28
JOLIET*        PTCLDY    35  31  85 S6        30.03F WCI  30
WAUKEGAN       CLOUDY    34  29  82 SW10      29.97F WCI  26
DUPAGE AIRPORT MOCLDY    35  28  75 SW9       29.99F WCI  28
KANKAKEE*      MOCLDY    33  30  90 SW6       30.07S WCI  28
WHEELING       CLOUDY    34  29  82 S7        30.00F WCI  28
MORRIS*        CLOUDY    34  30  85 S6        30.01S WCI  29
ROMEOVILLE*    MOCLDY    34  30  84 S9        30.02F WCI  27
NORTHERLY ISL    N/A     37  29  73 S7          N/A  WCI  32
$$

LMZ740>746-070900-
SOUTHERN LAKE MICHIGAN

STATION/POSITION SKY/WX   TEMP    WIND        PRES    VSBY  WAVE
                          AIR SEA DIR/SP/G                  HT/PER
                          (F)     (DEG/KT/KT) (MB)    (MI)  (FT/S)
HARRISON CRIB              39     210/ 17/ 19   N/A
BURNHAM HARBOR             38     180/  5/  7   N/A
CALUMET HARBOR             35     200/  6/ 10 1016.6F
BURNS HARBOR               36     190/ 12/ 14 1017.9F
MICHIGAN CITY              36     160/ 12/ 15   N/A
$$

ILZ025>027-034>036-040-047-049-050-058-095>099-070900-
WEST-CENTRAL ILLINOIS

CITY           SKY/WX    TMP DP  RH WIND       PRES   REMARKS
QUINCY         CLOUDY    37  28  70 S10       30.04F WCI  30
GALESBURG*     CLOUDY    35  30  81 S10       29.99F WCI  28
MACOMB*        CLOUDY    37  30  76 S10       30.04F WCI  30
JACKSONVILLE*  CLOUDY    40  30  68 SW7       30.09S
PITTSFIELD*    PTCLDY    39  29  68 SW9       30.10S WCI  33
$$

ILZ028>032-037-038-041>044-048-051>054-059>061-070900-
CENTRAL ILLINOIS

CITY           SKY/WX    TMP DP  RH WIND       PRES   REMARKS
PONTIAC        CLOUDY    37  32  81 S8        30.06S WCI  31
BLOOMINGTON    CLOUDY    33  31  93 S9        30.07F WCI  25
DECATUR        CLEAR     35  28  75 SW9       30.10F WCI  28
PEORIA         CLOUDY    35  28  75 SW9       30.05F WCI  28
LACON*         CLOUDY    36  28  73 SW7       30.03F WCI  30
LINCOLN*       PTCLDY    36  32  85 SW3       30.09S
SPRINGFIELD    MOCLDY    40  28  62 S12       30.09F
TAYLORVILLE    PTCLDY    34  28  80 S10       30.12S WCI  26
$$

ILZ033-039-045-046-055>057-062-063-070900-
EAST-CENTRAL ILLINOIS

CITY           SKY/WX    TMP DP  RH WIND       PRES   REMARKS
CHAMPAIGN      CLEAR     34  28  79 S9        30.09F WCI  27
RANTOUL*       PTCLDY    37  31  79 SW8       30.09S WCI  30
MATTOON        CLEAR     38  24  57 SW10      30.12S WCI  31
PARIS*         PTCLDY    36  28  72 SW10      30.12S WCI  28
$$

ILZ079-100>102-070900-
SOUTHWEST ILLINOIS

CITY           SKY/WX    TMP DP  RH WIND       PRES   REMARKS
ALTON          PTCLDY    37  27  67 S9        30.15S WCI  31
BELLEVILLE     PTCLDY    35  21  56 SW5       30.16S WCI  31
CAHOKIA*       MOCLDY    43  18  36 SW7       30.16F
SPARTA*        CLEAR     38  21  50 S7        30.19S WCI  33
$$

ILZ064>066-069>071-074>076-080>082-084>086-088>090-092>094-070900-
SOUTH-CENTRAL ILLINOIS

CITY           SKY/WX    TMP DP  RH WIND       PRES   REMARKS
CARBONDALE     CLEAR     41  20  43 SW10      30.20F
CAIRO*         CLEAR     29  25  87 CALM      30.23F
EFFINGHAM*     CLEAR     38  26  60 S9        30.16F WCI  32
MARION         CLEAR     41  23  48 SW6       30.21S
MT. VERNON     CLEAR     34  21  60 SW8       30.18F WCI  27
CENTRALIA*     CLEAR     39  25  56 SW12      30.16S WCI  32
SALEM*         CLEAR     40  23  50 SW10      30.16S
METROPOLIS*    CLEAR     28  25  87 CALM      30.23F
$$

ILZ067-068-072-073-078-083-087-091-070900-
SOUTHEAST ILLINOIS

CITY           SKY/WX    TMP DP  RH WIND       PRES   REMARKS
LAWRENCEVILLE  CLEAR     37  25  61 SW10      30.17F WCI  30
FLORA*         CLEAR     37  26  66 SW8       30.17F WCI  30
FAIRFIELD*     CLEAR     36  26  66 CALM      30.18S
HARRISBURG*    CLEAR     37  24  59 SW3       30.21F
ROBINSON*      CLEAR     38  25  60 SW12      30.17S WCI  30
CARMI*         CLEAR     39  24  55 SW9       30.19F WCI  32
$$

ABBREVIATIONS USED IN REMARKS
   TC - TEMPERATURE IN CELSIUS
  WCI - WIND CHILL INDEX
   HX - HEAT INDEX
  VSB - VISIBILITY
$$




USA.gov is the U.S. government's official web portal to all federal, state and local government web resources and services.